Location: Madden
(51.3728°N, 114.3297°W)
Time: 06:01:46
(UTC+00:00)

PCSat - Pass Details

Date: 13 December 2023
Orbit: 784 x 791 km, 67.0° (Epoch: 02 March)

Event Time Altitude Azimuth Distance (km) Brightness Sun altitude
Exits shadow 13:27:11 17° 337° (NNW) 1,934 11.2 -18.5°
Maximum altitude 13:27:51 17° 346° (NNW) 1,916 11.3 -18.4°
Drops below altitude 10° 13:31:21 10° 27° (NNE) 2,364 12.2 -17.9°
Sets 13:34:40 0° 47° (NE) 3,297 13.2 -17.4°
